Date String (YYYY-MM-DD hh:mm:ss) UTC,Instrument flags,Ambient pressure (hPa),Sample flow (lpm),Bypass flow (lpm),Sample temperature (°C),Ambient temperature (°C),ASC tube jacket temperature (°C),LED temperature (°C),Box temperature (°C),Sample RH (%),Span deviation,Mass concentration (μg/m³),Mass concentration (μg/m³),Mass concentration (μg/m³)
DateTimeUTC,F1_M11,P_M11,Q1_M11,Q2_M11,T1_M11,T2_M11,T3_M11,T4_M11,T5_M11,U1_M11,ZSPAN_M11,X0_M11,X2_M11,X1_M11
2022-05-20 18:00:00,,0820.2,5.01,0.00,24.9,23.9,00.0,33.8,26.8,20.8,0000.0,0002.34,0001.85,0001.69
2022-05-20 18:01:00,,0820.2,5.01,0.00,24.9,23.9,00.0,33.8,26.8,20.8,0000.0,0002.43,0001.90,0001.72
2022-05-20 18:02:00,,0820.2,4.99,0.00,24.9,23.9,00.0,33.8,26.8,21.0,0000.0,0002.50,0001.93,0001.74
2022-05-20 18:03:00,,0820.2,5.01,0.00,24.9,23.9,00.0,33.8,26.8,20.9,0000.0,0002.52,0001.94,0001.74
2022-05-20 18:04:00,,0820.2,4.99,0.00,24.9,23.8,00.0,33.8,26.8,21.0,0000.0,0002.52,0001.93,0001.72
2022-05-20 18:05:00,,0820.2,5.00,0.00,24.9,23.8,00.0,33.8,26.8,20.9,0000.0,0002.55,0001.94,0001.72
2022-05-20 18:06:00,,0820.1,5.00,0.00,24.8,23.8,00.0,33.8,26.7,20.8,0000.0,0002.67,0001.97,0001.70
2022-05-20 18:07:00,,0820.0,5.01,0.00,24.8,23.7,00.0,33.8,26.7,20.7,0000.0,0002.78,0001.99,0001.69
2022-05-20 18:08:00,,0820.0,4.99,0.00,24.8,23.7,00.0,33.8,26.6,20.8,0000.0,0002.83,0001.99,0001.67
2022-05-20 18:09:00,,0820.0,5.01,0.00,24.8,23.6,00.0,33.8,26.6,21.0,0000.0,0002.88,0002.02,0001.68
2022-05-20 18:10:00,,0820.0,5.00,0.00,24.7,23.6,00.0,33.8,26.6,21.2,0000.0,0002.90,0002.02,0001.69
2022-05-20 18:11:00,,0820.0,4.99,0.00,24.7,23.6,00.0,33.8,26.6,21.2,0000.0,0002.80,0001.97,0001.67
2022-05-20 18:12:00,,0820.1,5.00,0.00,24.7,23.6,00.0,33.8,26.6,21.4,0000.0,0002.65,0001.90,0001.63
2022-05-20 18:13:00,,0820.1,4.99,0.00,24.7,23.5,00.0,33.7,26.6,21.5,0000.0,0002.59,0001.87,0001.62
2022-05-20 18:14:00,,0820.1,5.00,0.00,24.7,23.5,00.0,33.7,26.6,21.7,0000.0,0002.64,0001.90,0001.61
2022-05-20 18:15:00,,0820.1,4.99,0.00,24.7,23.5,00.0,33.7,26.5,21.5,0000.0,0002.73,0001.91,0001.61
2022-05-20 18:16:00,,0820.0,5.01,0.00,24.6,23.4,00.0,33.7,26.5,21.4,0000.0,0002.69,0001.88,0001.60
2022-05-20 18:17:00,,0820.0,5.01,0.00,24.6,23.4,00.0,33.7,26.5,21.2,0000.0,0002.69,0001.86,0001.58
2022-05-20 18:18:00,,0819.9,5.00,0.00,24.6,23.4,00.0,33.7,26.4,21.2,0000.0,0002.78,0001.81,0001.56
2022-05-20 18:19:00,,0820.0,4.99,0.00,24.6,23.4,00.0,33.7,26.4,21.3,0000.0,0002.81,0001.78,0001.52
2022-05-20 18:20:00,,0820.1,5.00,0.00,24.6,23.4,00.0,33.7,26.4,21.2,0000.0,0002.69,0001.69,0001.46
2022-05-20 18:21:00,,0820.2,5.01,0.00,24.6,23.4,00.0,33.6,26.4,21.0,0000.0,0002.59,0001.61,0001.40
2022-05-20 18:22:00,,0820.2,4.99,0.00,24.6,23.4,00.0,33.6,26.4,21.1,0000.0,0002.67,0001.60,0001.37
2022-05-20 18:23:00,,0820.2,5.01,0.00,24.6,23.4,00.0,33.6,26.4,21.2,0000.0,0002.78,0001.59,0001.34
2022-05-20 18:24:00,,0820.1,4.99,0.00,24.5,23.4,00.0,33.6,26.4,21.2,0000.0,0002.82,0001.57,0001.31
2022-05-20 18:25:00,,0820.0,5.01,0.00,24.5,23.4,00.0,33.6,26.4,21.3,0000.0,0002.73,0001.51,0001.27
2022-05-20 18:26:00,,0820.0,4.99,0.00,24.5,23.4,00.0,33.6,26.4,21.4,0000.0,0002.69,0001.51,0001.26
2022-05-20 18:27:00,,0820.0,5.01,0.00,24.5,23.3,00.0,33.6,26.4,21.5,0000.0,0002.70,0001.51,0001.24
2022-05-20 18:28:00,,0820.0,5.01,0.00,24.5,23.3,00.0,33.6,26.3,21.5,0000.0,0002.59,0001.48,0001.24
2022-05-20 18:29:00,,0819.9,5.00,0.00,24.5,23.3,00.0,33.5,26.3,21.5,0000.0,0002.36,0001.48,0001.25
2022-05-20 18:30:00,,0819.9,4.99,0.00,24.5,23.3,00.0,33.5,26.3,21.5,0000.0,0002.26,0001.49,0001.26
2022-05-20 18:31:00,,0820.0,4.99,0.00,24.5,23.3,00.0,33.5,26.3,21.5,0000.0,0002.32,0001.57,0001.34
2022-05-20 18:32:00,,0820.0,5.00,0.00,24.5,23.3,00.0,33.5,26.3,21.6,0000.0,0002.39,0001.65,0001.42
2022-05-20 18:33:00,,0820.2,4.99,0.00,24.4,23.3,00.0,33.5,26.3,21.7,0000.0,0002.49,0001.76,0001.50
2022-05-20 18:34:00,,0820.2,5.00,0.00,24.4,23.2,00.0,33.5,26.2,21.8,0000.0,0002.59,0001.88,0001.58
2022-05-20 18:35:00,,0820.3,5.00,0.00,24.4,23.2,00.0,33.5,26.2,21.8,0000.0,0002.69,0001.98,0001.67
2022-05-20 18:36:00,,0820.4,4.99,0.00,24.4,23.2,00.0,33.5,26.2,21.9,0000.0,0002.81,0002.06,0001.75
2022-05-20 18:37:00,,0820.4,5.01,0.00,24.4,23.2,00.0,33.4,26.3,22.5,0000.0,0002.80,0002.07,0001.77
2022-05-20 18:38:00,,0820.6,5.00,0.00,24.4,23.2,00.0,33.4,26.3,23.2,0000.0,0002.81,0002.08,0001.78
2022-05-20 18:39:00,,0820.6,5.00,0.00,24.4,23.2,00.0,33.4,26.3,21.8,0000.0,0002.89,0002.09,0001.76
2022-05-20 18:40:00,,0820.6,5.00,0.00,24.4,23.3,00.0,33.4,26.3,21.1,0000.0,0002.92,0002.09,0001.75
2022-05-20 18:41:00,,0820.7,5.00,0.00,24.4,23.3,00.0,33.4,26.3,20.8,0000.0,0002.91,0002.09,0001.73
2022-05-20 18:42:00,,0820.6,5.00,0.00,24.4,23.3,00.0,33.4,26.3,20.4,0000.0,0002.84,0002.03,0001.65
2022-05-20 18:43:00,,0820.6,5.01,0.00,24.4,23.3,00.0,33.4,26.3,20.1,0000.0,0002.77,0001.95,0001.55
2022-05-20 18:44:00,,0820.6,4.99,0.00,24.4,23.3,00.0,33.4,26.3,19.8,0000.0,0002.75,0001.86,0001.44
2022-05-20 18:45:00,,0820.6,5.01,0.00,24.4,23.3,00.0,33.4,26.3,19.4,0000.0,0002.60,0001.73,0001.35
2022-05-20 18:46:00,,0820.6,4.99,0.00,24.4,23.3,00.0,33.4,26.3,19.1,0000.0,0002.56,0001.65,0001.25
2022-05-20 18:47:00,,0820.6,5.01,0.00,24.4,23.3,00.0,33.4,26.3,18.9,0000.0,0002.50,0001.57,0001.15
2022-05-20 18:48:00,,0820.7,5.00,0.00,24.4,23.3,00.0,33.4,26.3,18.8,0000.0,0002.46,0001.51,0001.06
2022-05-20 18:49:00,,0820.7,5.01,0.00,24.4,23.3,00.0,33.4,26.3,18.7,0000.0,0002.65,0001.55,0001.03
2022-05-20 18:50:00,,0820.7,4.99,0.00,24.4,23.3,00.0,33.4,26.3,18.7,0000.0,0002.76,0001.57,0001.04
2022-05-20 18:51:00,,0820.7,5.01,0.00,24.4,23.3,00.0,33.4,26.3,18.7,0000.0,0002.83,0001.61,0001.06
2022-05-20 18:52:00,,0820.7,4.99,0.00,24.4,23.3,00.0,33.4,26.3,18.6,0000.0,0003.10,0001.70,0001.09
2022-05-20 18:53:00,,0820.7,5.01,0.00,24.4,23.3,00.0,33.4,26.3,18.5,0000.0,0003.64,0001.85,0001.15
2022-05-20 18:54:00,,0820.8,4.98,0.00,24.4,23.3,00.0,33.4,26.3,18.5,0000.0,0003.96,0001.99,0001.21
2022-05-20 18:55:00,,0820.8,5.01,0.00,24.4,23.3,00.0,33.4,26.3,18.5,0000.0,0004.11,0002.09,0001.27
2022-05-20 18:56:00,,0820.9,5.00,0.00,24.4,23.3,00.0,33.4,26.3,18.5,0000.0,0004.46,0002.23,0001.32
2022-05-20 18:57:00,,0820.9,4.99,0.00,24.4,23.3,00.0,33.4,26.3,18.5,0000.0,0004.80,0002.31,0001.35
2022-05-20 18:58:00,,0821.0,5.01,0.00,24.4,23.3,00.0,33.4,26.3,18.5,0000.0,0004.82,0002.38,0001.41
2022-05-20 18:59:00,,0821.0,5.00,0.00,24.4,23.3,00.0,33.4,26.3,18.5,0000.0,0004.95,0002.46,0001.48
